This is the latest recevied weather packets stored in our database for station/object KC4KQE. If no packets are shown the sender has not sent any weather packets the latest 10 day(s).
| Time | Temp. | Humidity | Pressure | Rain* | Wind** | Luminosity | Snow |
|---|---|---|---|---|---|---|---|
| 1777222755 | 21.11° C | 32% | 1011.6 hPa | 0 mm | - | 754 W/m² | - |
| 1777222455 | 21.11° C | 32% | 1011.5 hPa | 0 mm | - | 744 W/m² | - |
| 1777222155 | 20.56° C | 33% | 1011.4 hPa | 0 mm | - | 744 W/m² | - |
| 1777221855 | 20.56° C | 33% | 1011.5 hPa | 0 mm | - | 749 W/m² | - |
| 1777221556 | 20.56° C | 33% | 1011.5 hPa | 0 mm | - | 816 W/m² | - |
| 1777221255 | 20.56° C | 34% | 1011.4 hPa | 0 mm | - | 737 W/m² | - |
| 1777220955 | 20.56° C | 35% | 1011.3 hPa | 0 mm | - | 700 W/m² | - |
| 1777220655 | 19.44° C | 36% | 1011.4 hPa | 0 mm | - | 332 W/m² | - |
| 1777220355 | 19.44° C | 38% | 1011.4 hPa | 0 mm | - | 216 W/m² | - |
| 1777220056 | 18.89° C | 38% | 1011.3 hPa | 0 mm | - | 206 W/m² | - |
| 1777219757 | 18.89° C | 38% | 1011.3 hPa | 0 mm | - | 320 W/m² | - |
| 1777219455 | 19.44° C | 38% | 1011.2 hPa | 0 mm | - | 202 W/m² | - |
| 1777219155 | 19.44° C | 38% | 1011.2 hPa | 0 mm | - | 649 W/m² | - |
| 1777218855 | 18.89° C | 40% | 1011.1 hPa | 0 mm | - | 132 W/m² | - |
| 1777218555 | 18.33° C | 40% | 1011.1 hPa | 0 mm | - | 132 W/m² | - |
| 1777218255 | 18.89° C | 42% | 1011 hPa | 0 mm | - | 149 W/m² | - |
| 1777217955 | 18.33° C | 44% | 1010.9 hPa | 0 mm | - | 176 W/m² | - |
| 1777217655 | 18.33° C | 46% | 1010.9 hPa | 0 mm | - | 204 W/m² | - |
| 1777217355 | 18.33° C | 47% | 1010.8 hPa | 0 mm | - | 171 W/m² | - |
| 1777217055 | 18.33° C | 47% | 1010.7 hPa | 0 mm | - | 98 W/m² | - |
| 1777216755 | 18.33° C | 47% | 1010.6 hPa | 0 mm | - | 137 W/m² | - |
| 1777216455 | 17.78° C | 47% | 1010.6 hPa | 0 mm | - | 418 W/m² | - |
| 1777216155 | 17.78° C | 46% | 1010.6 hPa | 0 mm | - | 81 W/m² | - |
| 1777215856 | 17.78° C | 46% | 1010.5 hPa | 0 mm | - | 77 W/m² | - |
| 1777215555 | 17.78° C | 45% | 1010.6 hPa | 0 mm | - | 77 W/m² | - |
* Rain latest hour (hover to see other rain measurements)
** Current wind speed in m/s (hover to see current wind gust speed)